| time (UTC) | temp F | wind direction | speed knots | gust knots | rain 1hr in | rain 24hr in | rain mn in | humidity % | barometer mb |
| 20260503231552 | 61 | 0 | 0.0 | 5.2 | 0.00 | 0.00 | 0.00 | 44 | 1017.0 |
| 20260503230051 | 61 | 184 | 1.7 | 7.8 | 0.00 | 0.00 | 0.00 | 43 | 1017.0 |
| 20260503224550 | 62 | 284 | 2.6 | 7.8 | 0.00 | 0.00 | 0.00 | 43 | 1017.1 |
| 20260503223053 | 61 | 0 | 0.0 | 7.0 | 0.00 | 0.00 | 0.00 | 44 | 1017.2 |
| 20260503221554 | 61 | 0 | 1.7 | 7.0 | 0.00 | 0.00 | 0.00 | 45 | 1017.0 |
| 20260503220053 | 62 | 136 | 1.7 | 7.0 | 0.00 | 0.00 | 0.00 | 43 | 1017.0 |
| 20260503214551 | 63 | 162 | 0.9 | 8.7 | 0.00 | 0.00 | 0.00 | 42 | 1017.1 |
| 20260503213056 | 63 | 327 | 2.6 | 10.4 | 0.00 | 0.00 | 0.00 | 39 | 1017.1 |
| 20260503211550 | 63 | 327 | 6.1 | 10.4 | 0.00 | 0.00 | 0.00 | 39 | 1017.2 |
| 20260503204554 | 64 | 302 | 0.9 | 8.7 | 0.00 | 0.00 | 0.00 | 37 | 1017.3 |
| 20260503203101 | 63 | 246 | 3.5 | 12.2 | 0.00 | 0.00 | 0.00 | 36 | 1017.4 |
| 20260503201554 | 62 | 205 | 1.7 | 13.9 | 0.00 | 0.00 | 0.00 | 40 | 1017.8 |
| 20260503200057 | 61 | 80 | 4.3 | 11.3 | 0.00 | 0.00 | 0.00 | 43 | 1017.8 |
| 20260503194554 | 60 | 209 | 2.6 | 11.3 | 0.00 | 0.00 | 0.00 | 45 | 1018.0 |
| 20260503193101 | 60 | 79 | 2.6 | 7.8 | 0.00 | 0.00 | 0.00 | 44 | 1018.3 |
| 20260503191552 | 60 | 96 | 2.6 | 8.7 | 0.00 | 0.00 | 0.00 | 45 | 1018.7 |
| 20260503190054 | 59 | 121 | 4.3 | 13.0 | 0.00 | 0.00 | 0.00 | 45 | 1018.7 |
| 20260503184609 | 59 | 94 | 3.5 | 8.7 | 0.00 | 0.00 | 0.00 | 43 | 1018.8 |
| 20260503183109 | 59 | 101 | 2.6 | 9.6 | 0.00 | 0.00 | 0.00 | 43 | 1018.9 |
| 20260503181607 | 59 | 266 | 3.5 | 8.7 | 0.00 | 0.00 | 0.00 | 43 | 1019.2 |
| 20260503180058 | 59 | 194 | 1.7 | 7.8 | 0.00 | 0.00 | 0.00 | 42 | 1019.3 |
| 20260503174550 | 59 | 309 | 7.0 | 10.4 | 0.00 | 0.00 | 0.00 | 42 | 1019.2 |
| 20260503173100 | 59 | 260 | 0.9 | 7.0 | 0.00 | 0.00 | 0.00 | 42 | 1019.3 |
| 20260503171552 | 58 | 86 | 1.7 | 7.8 | 0.00 | 0.00 | 0.00 | 43 | 1019.5 |
| 20260503090104 | 29 | 0 | 0.0 | 0.9 | 0.00 | 0.00 | 0.00 | 87 | 1018.4 |
| 20260503081622 | 30 | 0 | 0.0 | 0.0 | 0.00 | 0.00 | 0.00 | 86 | 1017.9 |
| 20260503080110 | 30 | 0 | 0.0 | 0.0 | 0.00 | 0.00 | 0.00 | 86 | 1017.5 |
| 20260503071555 | 31 | 0 | 0.0 | 0.0 | 0.00 | 0.00 | 0.00 | 85 | 1017.3 |
| 20260503060103 | 33 | 0 | 0.0 | 0.0 | 0.00 | 0.00 | 0.00 | 84 | 1017.1 |
| 20260503054554 | 33 | 0 | 0.0 | 0.0 | 0.00 | 0.00 | 0.00 | 84 | 1017.3 |
| 20260503053053 | 34 | 0 | 0.0 | 0.0 | 0.00 | 0.00 | 0.00 | 83 | 1017.3 |
| 20260503051552 | 34 | 0 | 0.0 | 0.0 | 0.00 | 0.00 | 0.00 | 83 | 1017.3 |
| 20260503050054 | 34 | 0 | 0.0 | 0.0 | 0.00 | 0.00 | 0.00 | 83 | 1017.1 |
| 20260503044559 | 35 | 0 | 0.0 | 0.0 | 0.00 | 0.00 | 0.00 | 81 | 1017.1 |
| 20260503043059 | 35 | 0 | 0.0 | 0.0 | 0.00 | 0.00 | 0.00 | 81 | 1017.0 |
| 20260503041553 | 36 | 0 | 0.0 | 0.0 | 0.00 | 0.00 | 0.00 | 80 | 1016.9 |
| 20260503040054 | 37 | 0 | 0.0 | 0.0 | 0.00 | 0.00 | 0.00 | 79 | 1016.7 |
| 20260503034555 | 37 | 0 | 0.0 | 0.0 | 0.00 | 0.00 | 0.00 | 77 | 1016.7 |
| 20260503033114 | 38 | 0 | 0.0 | 0.0 | 0.00 | 0.00 | 0.00 | 76 | 1016.6 |
| 20260503031559 | 39 | 0 | 0.0 | 0.0 | 0.00 | 0.00 | 0.00 | 74 | 1016.5 |
| 20260503024618 | 41 | 0 | 0.0 | 0.0 | 0.00 | 0.00 | 0.00 | 71 | 1016.2 |
| 20260503023055 | 42 | 0 | 0.0 | 0.0 | 0.00 | 0.00 | 0.00 | 70 | 1016.0 |
| 20260503021600 | 43 | 0 | 0.0 | 0.0 | 0.00 | 0.00 | 0.00 | 67 | 1015.9 |
| 20260503020052 | 44 | 0 | 0.0 | 2.6 | 0.00 | 0.00 | 0.00 | 65 | 1016.1 |
| 20260503014549 | 44 | 0 | 0.0 | 0.9 | 0.00 | 0.00 | 0.00 | 63 | 1015.8 |
| 20260503013054 | 45 | 0 | 0.0 | 2.6 | 0.00 | 0.00 | 0.00 | 60 | 1015.7 |
| 20260503011557 | 47 | 0 | 0.0 | 0.0 | 0.00 | 0.00 | 0.00 | 58 | 1015.5 |
| 20260503010055 | 48 | 0 | 0.0 | 2.6 | 0.00 | 0.00 | 0.00 | 54 | 1015.2 |
| 20260503004550 | 49 | 0 | 0.0 | 2.6 | 0.00 | 0.00 | 0.00 | 52 | 1015.0 |
| 20260503003106 | 50 | 28 | 0.0 | 1.7 | 0.00 | 0.00 | 0.00 | 49 | 1014.7 |
| 20260503001559 | 51 | 259 | 0.9 | 4.3 | 0.00 | 0.00 | 0.00 | 46 | 1014.4 |
| 20260503000107 | 52 | 288 | 0.9 | 6.1 | 0.00 | 0.00 | 0.00 | 44 | 1014.2 |
| 20260502234611 | 52 | 0 | 1.7 | 7.8 | 0.00 | 0.00 | 0.00 | 43 | 1014.0 |
| 20260502233108 | 52 | 319 | 0.9 | 11.3 | 0.00 | 0.00 | 0.00 | 44 | 1013.9 |